Theta_e
291 290 290 291 291 291 290 290 290 289 290 291 291 292 294 295 289 288 297 296 294 297 300 304 306 309 313 314 314 315 316 317 318 318 317 318 319 321 322 323 325 325 325 326 328 329 329 330 330 331 331 331 329 328 326 325 325 324 324 325 323 322 321 322 322 324 323 321 321 320 318 317 315 315 315 315 314 314 314 315 317 317 317 317 315 315 314
291 290 290 291 290 290 290 290 291 291 291 292 293 294 294 295 294 295 296 297 298 301 303 306 309 309 313 315 316 315 315 315 316 317 317 317 318 320 321 322 324 326 327 327 328 329 328 328 329 330 330 329 329 327 326 325 325 325 325 324 322 322 322 323 323 321 319 318 316 316 315 315 314 314 314 314 313 313 313 313 315 315 316 316 315 314 313
290 292 291 291 290 290 289 291 291 291 292 292 293 295 293 294 294 294 294 294 296 303 304 303 309 309 314 314 313 313 315 315 316 316 316 317 318 319 321 323 324 326 326 327 328 328 328 328 328 328 328 328 329 328 326 326 326 326 326 323 322 321 322 322 320 319 317 315 314 313 313 313 312 312 313 314 314 312 312 312 313 314 314 314 314 313 312
287 290 291 290 290 291 290 289 290 291 291 290 292 290 295 293 293 297 296 295 294 303 303 306 308 311 313 312 313 313 314 315 316 316 316 317 318 319 321 323 324 325 326 326 327 327 329 330 329 329 327 327 327 326 327 326 326 328 325 323 322 322 321 319 318 317 316 315 313 312 312 311 311 312 313 313 313 312 311 311 312 313 313 313 313 312 312
285 289 290 290 289 289 286 286 290 292 293 294 295 295 296 297 299 295 290 292 301 304 307 310 310 311 314 314 314 314 314 316 317 317 317 318 319 320 321 323 323 324 325 327 327 328 329 329 331 330 328 326 325 325 325 325 324 323 322 322 322 322 320 318 317 317 316 315 313 311 311 310 311 312 312 312 311 310 310 311 311 311 311 311 311 311 311
285 287 289 290 286 279 282 294 296 295 293 293 292 292 295 298 298 297 300 300 302 304 307 312 312 311 313 315 316 317 316 315 316 318 319 319 320 321 323 324 324 325 326 327 329 329 329 330 330 331 331 328 326 325 325 324 323 322 322 322 321 319 319 318 317 316 315 313 311 311 310 310 309 309 310 310 310 310 309 310 310 310 310 310 310 310 310
285 287 289 284 278 281 293 295 294 295 299 296 296 297 298 299 299 300 298 299 301 307 311 312 314 315 315 317 317 317 319 319 318 318 319 320 320 321 322 324 325 326 326 327 329 329 329 330 331 330 329 329 327 324 323 322 321 321 322 321 320 319 319 318 317 316 314 312 310 310 309 308 308 307 307 308 308 308 308 309 309 309 309 308 308 309 309
285 284 285 277 279 292 295 298 298 298 296 295 298 295 298 298 299 300 302 301 305 309 310 311 313 315 314 316 318 319 320 320 320 320 320 320 321 321 323 324 325 327 327 328 329 330 330 330 329 328 327 326 324 323 323 322 321 322 322 320 319 318 319 317 316 315 313 311 309 308 308 307 306 305 305 306 305 306 306 307 307 308 308 308 307 307 307
283 284 285 284 291 294 296 297 299 298 295 295 295 289 294 303 301 299 302 303 305 308 309 311 313 314 316 316 317 319 320 320 322 323 323 323 323 324 325 326 326 328 329 330 330 331 330 329 327 327 326 325 324 323 322 322 321 321 322 320 319 318 318 317 315 314 312 310 308 307 307 306 306 305 305 306 305 305 304 304 304 305 306 306 307 306 305
288 287 286 287 287 285 290 299 300 302 302 303 300 297 294 302 301 302 304 306 307 308 309 312 314 316 314 313 315 320 320 321 322 323 324 325 325 326 326 327 328 329 329 331 331 331 330 330 329 327 324 324 322 322 322 321 321 321 321 320 320 318 318 316 315 314 312 310 308 307 307 307 307 307 306 306 305 305 304 303 304 304 305 304 305 305 305
287 287 286 285 284 286 295 299 302 302 302 303 302 295 291 300 302 303 305 306 309 309 310 313 314 311 308 310 313 319 321 321 323 322 324 324 325 325 326 326 326 327 329 330 330 330 330 328 327 326 325 324 321 320 320 321 322 321 320 320 319 318 318 315 315 313 312 311 309 308 307 307 307 306 304 303 304 305 304 304 303 303 303 303 303 303 304
286 286 287 285 286 290 297 301 302 303 303 302 296 286 288 303 303 303 305 307 309 310 313 315 313 309 306 306 311 316 321 322 323 324 324 324 324 325 326 327 328 328 329 329 328 329 328 327 327 326 326 326 323 321 322 322 320 320 320 320 318 318 316 314 314 312 311 310 309 307 306 306 306 306 305 303 302 302 302 301 300 300 301 302 301 301 302
285 285 287 289 291 296 300 301 304 304 301 298 288 285 292 300 304 304 306 307 310 313 313 314 312 311 310 311 310 313 322 321 321 324 326 325 325 323 324 323 319 326 327 327 327 328 328 326 324 323 324 325 324 322 322 320 319 319 317 316 315 314 314 313 313 312 312 310 309 308 307 306 306 304 303 301 300 299 299 298 299 299 300 300 301 300 301
288 287 289 288 292 297 300 305 303 304 296 288 287 297 299 302 308 308 306 308 309 312 315 314 312 313 308 308 309 315 320 322 322 323 323 322 321 322 320 318 321 325 325 327 328 329 327 323 321 320 320 321 323 321 317 316 316 317 316 315 314 313 313 312 311 311 310 308 307 307 307 306 303 302 301 301 300 300 299 299 298 298 298 299 299 299 300
285 286 288 288 286 292 304 304 302 303 292 292 302 304 308 304 308 309 308 308 309 312 314 311 308 308 308 310 312 316 319 320 320 321 322 321 319 319 319 321 322 323 323 324 324 324 324 323 320 318 318 317 319 317 315 314 316 317 317 316 314 312 311 310 310 309 308 306 305 306 305 305 303 302 302 302 301 300 299 298 297 296 297 297 298 298 298
288 285 285 287 294 303 304 303 297 305 305 306 306 305 309 311 309 309 309 308 310 312 315 315 310 308 309 310 313 315 317 318 319 321 321 320 320 320 322 322 322 323 323 323 323 322 322 321 319 318 316 315 314 314 313 313 313 313 314 314 313 311 309 309 308 308 308 307 306 306 305 304 303 302 302 302 301 300 299 297 296 295 296 296 297 297 297
289 291 295 301 302 303 304 303 306 306 307 307 307 307 307 308 311 309 309 309 309 313 316 312 311 312 310 310 312 315 314 317 319 319 320 320 319 320 320 320 320 321 321 321 321 319 319 319 319 319 317 314 311 311 310 312 312 313 312 311 311 309 310 309 308 308 308 308 306 306 305 304 302 301 300 300 298 299 299 298 296 295 295 296 296 296 297
299 301 302 304 304 304 304 305 305 305 306 307 307 307 308 309 308 308 310 310 311 314 316 317 313 311 311 312 312 312 314 315 315 316 317 317 319 319 319 318 319 320 320 320 319 316 315 316 315 315 316 315 311 310 311 312 313 313 313 311 309 309 309 308 308 308 307 306 306 305 305 304 303 302 300 300 300 299 300 299 296 296 296 296 296 297 297
295 293 303 303 302 303 303 304 306 307 306 306 306 306 307 308 309 309 308 311 315 315 315 316 315 311 311 311 311 312 313 314 315 316 315 316 318 319 318 318 317 318 318 316 315 314 312 313 313 314 315 315 313 311 311 312 314 314 312 310 308 308 308 308 308 308 305 304 304 304 304 304 303 302 301 301 301 300 300 299 297 297 296 295 296 297 297
293 295 301 302 302 302 303 303 303 304 305 306 307 307 308 309 311 311 311 314 314 315 316 314 313 311 311 313 313 313 313 313 314 314 315 315 316 317 318 318 318 317 316 315 314 313 311 312 312 313 314 313 312 312 312 313 313 312 309 309 309 309 309 308 308 306 304 296 300 302 302 303 301 301 301 301 300 299 299 299 298 297 296 296 296 297 298
298 301 303 303 304 306 305 304 304 304 304 305 307 308 309 310 312 314 313 312 312 314 312 312 313 311 311 313 313 312 312 313 314 315 315 316 315 316 316 317 316 317 315 314 314 313 311 311 312 313 313 312 313 314 313 313 313 311 308 306 309 309 309 308 306 304 303 302 302 302 302 302 301 301 300 300 299 299 300 300 300 298 297 298 298 299 299
295 297 302 304 298 295 304 304 302 302 304 306 307 308 308 308 310 313 314 313 313 312 313 314 313 311 310 312 313 312 313 313 314 314 314 315 315 315 316 316 315 314 314 314 312 310 310 311 312 313 312 312 313 313 314 314 313 310 308 309 310 309 309 308 306 303 302 303 303 302 302 300 299 298 291 294 299 300 299 295 293 293 294 299 300 300 301
296 300 301 302 305 304 302 302 303 304 304 306 306 305 305 306 307 310 314 314 313 312 311 312 313 311 311 310 312 312 312 312 313 316 316 315 314 314 315 315 314 314 313 312 311 309 310 311 311 311 311 310 311 312 313 313 312 310 310 309 308 308 307 306 303 303 303 303 302 302 302 301 300 298 298 298 290 291 293 293 292 291 291 291 293 294 300
301 302 304 304 305 304 303 303 304 304 305 307 306 306 306 305 306 307 307 308 310 310 310 311 312 312 311 311 311 310 311 313 313 314 315 317 316 315 317 316 314 313 312 311 311 311 313 312 312 312 311 311 312 312 312 312 312 311 311 309 308 307 306 304 300 300 303 302 302 301 301 302 301 299 298 297 297 291 290 291 290 290 290 290 290 291 292
303 303 303 303 304 303 304 304 304 304 305 307 306 305 305 306 306 307 307 307 307 309 310 309 310 313 314 313 313 312 312 312 313 312 310 309 311 316 315 314 314 313 313 313 312 312 312 312 311 311 311 311 312 313 313 313 312 311 311 310 308 307 306 303 302 301 302 302 301 302 301 300 300 300 299 298 297 295 293 289 289 289 289 290 290 290 291
303 302 303 303 303 303 303 305 306 304 304 306 307 306 305 305 306 306 305 306 306 306 308 309 310 311 313 313 312 311 311 310 306 310 314 313 313 314 313 312 312 313 313 312 311 310 310 309 310 311 311 311 311 311 311 312 312 311 311 310 310 308 306 305 305 304 303 302 302 301 300 300 301 301 300 299 298 295 293 292 292 291 289 289 290 290 290
303 302 303 306 304 304 303 305 303 302 303 305 306 306 307 308 306 307 307 306 306 306 305 306 308 310 310 309 308 309 309 308 311 312 314 313 313 313 312 311 312 312 310 311 311 309 307 309 309 310 309 310 311 311 312 312 312 311 310 310 309 300 294 299 308 307 306 305 303 302 300 300 300 299 299 298 298 295 295 293 293 293 294 293 290 290 293
302 302 301 303 304 303 302 301 302 302 303 303 305 306 306 307 307 306 305 305 306 306 305 305 307 310 308 308 311 311 311 311 309 310 311 312 313 313 314 314 313 312 312 310 309 309 309 309 309 308 308 310 311 312 312 313 312 310 310 310 309 307 305 304 306 307 307 306 304 302 301 300 300 299 298 297 296 296 295 296 296 296 294 296 295 291 289
301 301 301 300 301 301 302 303 304 304 304 304 305 306 307 306 304 303 302 302 303 305 304 304 304 304 306 308 312 311 310 310 310 309 309 309 310 312 312 313 313 312 311 311 311 311 311 310 309 309 308 309 310 311 312 312 311 310 309 309 308 306 305 306 306 305 305 305 304 303 296 298 298 299 298 298 296 296 295 295 295 296 296 296 296 295 292
301 301 300 299 299 301 303 302 301 302 303 304 304 304 305 305 302 300 300 301 302 302 302 304 304 303 304 304 304 308 309 308 307 306 307 308 309 310 311 311 311 310 310 310 310 311 311 311 310 311 311 309 310 311 312 312 311 311 310 310 309 308 308 307 306 305 305 304 303 295 299 300 300 299 297 296 296 296 294 295 295 294 295 295 293 295 294
299 299 298 298 298 299 300 300 301 301 302 303 304 304 304 303 302 300 299 300 301 300 301 302 303 304 304 303 303 304 305 305 306 305 305 305 307 309 311 313 314 311 311 310 310 310 311 312 312 312 312 311 311 310 310 310 310 309 309 309 308 299 295 294 297 306 305 302 299 299 298 298 299 298 296 295 294 294 295 294 293 294 294 295 294 294 295
298 298 298 298 298 299 299 300 300 300 300 301 301 300 300 301 299 298 298 298 299 300 301 301 301 301 301 305 307 307 307 307 306 306 306 306 307 307 309 311 310 305 311 310 309 310 311 311 311 313 312 311 311 311 310 309 308 306 305 299 302 301 295 292 299 301 302 300 300 299 297 297 297 297 295 295 295 294 294 294 293 293 294 294 293 294 295
298 297 297 297 298 299 299 299 300 299 299 299 297 297 297 297 297 297 298 298 299 299 300 299 299 299 301 304 304 305 307 308 308 307 307 307 307 307 306 308 311 312 312 312 311 311 311 311 312 312 311 311 311 310 311 309 307 305 304 303 302 300 293 294 297 300 299 299 298 299 298 298 297 295 295 294 294 293 294 293 292 292 292 293 294 295 295
302 301 300 301 301 300 299 298 298 299 298 298 299 300 300 298 298 297 297 299 299 298 297 297 297 298 299 299 301 303 305 305 303 303 305 306 307 307 308 308 310 310 309 309 310 310 311 311 312 312 312 311 311 310 310 309 307 306 304 303 300 296 295 296 295 299 298 297 298 295 296 296 296 296 293 293 295 294 292 293 292 292 293 294 295 297 292
299 300 300 300 301 303 302 301 300 300 300 300 300 299 297 297 298 297 297 299 298 296 295 296 296 297 297 298 298 297 298 298 298 301 303 305 305 306 308 308 309 309 308 307 307 307 308 310 311 312 312 311 311 310 309 309 309 307 305 303 299 297 297 297 297 298 297 297 297 297 296 296 296 293 294 295 294 292 291 292 294 293 293 292 291 290 289
301 301 300 301 301 301 301 301 301 301 301 300 299 298 297 297 298 298 298 297 295 295 296 296 297 296 296 296 296 294 292 294 297 300 302 303 304 306 306 306 307 307 307 305 304 304 306 308 296 297 311 311 310 310 309 308 308 307 305 303 299 298 297 296 297 297 297 297 295 295 295 293 293 292 292 293 293 293 293 292 292 291 292 292 292 291 291
303 302 300 300 300 300 300 300 300 301 300 299 300 299 298 297 296 296 296 296 295 294 295 296 297 296 294 292 292 292 293 295 297 299 301 302 304 304 304 304 303 303 304 303 302 302 304 305 291 287 301 310 309 310 309 295 307 306 303 302 300 298 297 297 296 296 295 295 294 294 291 291 292 292 291 293 292 291 291 291 289 290 290 290 289 289 289
301 302 302 301 301 301 300 299 298 298 298 297 297 297 297 297 297 297 297 297 297 296 295 295 294 294 294 294 295 295 295 295 299 301 302 301 302 303 302 301 299 301 300 300 300 300 302 297 290 297 307 308 308 309 302 291 296 304 304 302 301 299 298 297 296 295 294 295 292 293 292 292 292 292 292 292 292 291 290 291 290 290 290 289 289 288 288
300 300 300 300 300 300 299 299 300 300 302 301 299 298 296 297 298 300 299 297 295 295 297 295 294 295 295 296 296 296 296 297 299 301 302 301 301 301 299 299 298 298 298 298 298 299 299 296 300 303 305 307 307 306 296 288 292 304 304 303 301 299 297 297 296 294 294 294 293 293 293 293 293 293 292 291 291 290 289 290 289 289 289 290 289 288 288
302 302 301 301 301 300 301 301 301 300 300 301 302 301 299 299 301 301 300 299 295 293 295 295 297 295 295 295 296 295 296 297 299 300 300 300 300 300 301 300 299 299 297 291 297 299 292 287 296 304 304 305 305 303 298 294 296 301 301 300 299 298 297 297 296 295 294 294 293 290 293 292 293 292 291 291 291 290 290 290 289 289 289 289 289 288 287
301 301 300 301 300 301 302 302 301 300 300 301 301 301 300 301 301 301 300 298 296 295 295 296 296 294 294 295 295 295 296 296 297 298 299 301 300 299 299 298 299 298 296 293 294 294 293 294 301 303 303 302 302 296 298 294 300 300 300 299 299 298 297 296 295 295 293 293 293 293 293 293 292 291 290 290 290 291 290 290 290 289 290 289 289 288 288
300 300 300 300 300 301 301 301 301 301 301 301 300 300 301 300 302 300 298 297 296 295 294 294 291 295 295 295 296 297 298 297 295 295 295 295 295 297 298 298 298 296 287 289 294 296 300 300 299 296 301 301 298 291 292 297 300 299 299 298 298 297 297 296 294 294 294 293 294 295 294 293 292 291 290 290 291 290 290 290 290 290 290 289 289 289 289
300 301 301 301 301 300 302 302 302 302 301 301 301 301 300 300 300 298 297 297 296 295 294 293 292 291 294 296 296 296 296 295 295 295 296 294 294 294 294 295 295 294 285 291 295 299 298 298 298 297 292 295 296 288 291 299 298 298 298 297 296 297 296 296 295 294 294 294 294 295 294 293 292 291 290 291 291 291 291 291 291 290 290 290 290 289 289
299 301 301 302 301 300 301 302 302 302 302 301 301 301 301 300 301 301 300 299 297 296 295 294 294 294 293 295 295 295 295 296 296 296 297 297 297 296 294 293 293 290 286 291 295 295 294 294 294 290 287 288 288 290 297 299 298 296 296 296 296 296 296 295 295 295 295 294 294 294 294 292 293 292 291 291 291 291 292 292 293 292 291 291 290 290 290
300 301 301 301 300 300 301 302 303 302 302 301 301 301 301 301 301 301 302 301 298 296 295 297 296 296 296 297 297 296 296 296 296 298 298 297 296 296 295 288 293 293 291 289 295 294 294 293 290 287 288 288 289 290 298 297 296 296 296 296 296 295 295 295 295 295 294 294 294 294 293 293 294 292 293 292 291 292 293 292 292 293 293 293 293 292 291
299 299 300 295 301 303 303 302 302 302 302 301 301 300 301 302 302 301 302 302 300 300 300 300 299 298 297 296 296 296 295 295 295 294 294 295 295 294 291 288 293 290 290 289 294 293 292 286 287 288 288 289 290 296 296 296 296 297 296 295 295 294 295 296 296 296 295 294 294 294 294 293 293 293 293 292 292 292 292 289 291 293 294 294 293 292 292
299 299 300 301 301 301 301 301 302 303 303 303 302 302 301 301 302 302 301 301 301 300 299 300 299 299 299 299 299 298 298 298 297 295 293 294 292 290 289 288 288 288 292 296 295 295 294 292 288 288 288 289 291 299 298 298 298 297 297 297 295 295 295 295 294 294 295 295 293 291 290 291 293 293 291 291 292 293 292 292 293 293 292 291 291 290 290
299 300 300 300 301 300 300 301 302 303 302 300 302 303 302 302 302 302 301 301 300 300 300 300 299 300 300 300 300 300 301 300 297 296 295 294 296 297 298 298 294 288 290 289 290 288 287 287 288 288 289 290 297 297 297 297 297 296 295 294 295 294 295 294 294 294 293 292 292 294 293 294 295 296 296 296 296 295 294 293 292 291 291 291 290 290 290
299 300 300 300 300 300 300 300 301 302 303 302 302 302 301 301 301 301 301 302 302 301 300 300 300 300 300 298 299 301 298 298 300 297 295 296 297 297 296 292 288 290 296 297 297 295 289 288 288 289 289 291 298 297 297 296 295 295 295 295 295 296 296 296 295 295 295 294 294 294 295 295 295 294 294 294 294 294 292 291 291 290 290 290 290 288 288
299 300 299 299 299 300 300 300 301 302 302 301 302 301 301 302 301 300 301 303 302 298 301 301 301 301 300 301 301 298 297 297 296 295 294 295 296 297 296 296 295 291 292 297 296 294 289 288 289 290 294 298 298 298 298 298 297 295 295 295 295 296 294 292 290 291 294 294 294 294 295 295 294 292 291 290 289 288 288 288 288 286 285 286 286 286 285
299 299 300 298 300 301 301 303 302 301 301 302 302 300 300 301 301 299 302 302 302 301 301 300 299 299 299 298 298 297 296 295 294 292 295 295 296 293 293 294 294 292 294 295 296 296 298 298 298 295 296 296 297 297 297 297 296 294 292 293 292 293 294 294 295 296 296 294 294 293 293 292 290 289 288 287 287 287 286 286 286 285 285 284 284 284 284
300 301 300 299 300 300 301 300 300 299 300 300 301 301 301 301 300 300 300 293 302 302 302 301 299 299 297 297 297 297 296 296 295 295 293 293 295 295 293 290 294 293 295 295 296 297 296 295 291 290 291 295 295 293 289 289 293 292 291 290 289 291 291 292 292 292 292 291 290 290 289 289 288 287 286 286 286 285 284 284 283 283 283 283 283 283 283
Wind_Speed
3 4 3 4 15 12 11 15 12 12 9 8 11 6 4 7 4 3 3 5 6 11 6 1 2 6 7 8 9 8 9 10 11 13 15 16 16 16 16 15 13 13 15 15 15 13 12 13 14 15 14 11 11 10 11 11 9 10 11 12 12 12 11 10 11 13 9 8 8 10 9 8 8 8 8 7 7 8 7 7 7 9 10 10 10 9 8
5 6 5 3 12 13 14 14 15 15 12 11 10 9 4 8 3 2 1 4 10 8 3 3 1 3 5 6 7 9 11 12 13 14 15 16 16 15 16 16 15 14 12 13 14 13 9 14 14 13 12 13 14 13 11 12 13 14 12 12 13 13 15 13 12 10 9 9 8 9 9 9 8 8 8 8 8 8 8 8 8 9 9 9 10 10 10
3 1 4 6 8 11 13 13 14 14 12 11 12 8 3 2 4 1 2 2 7 6 2 2 1 1 3 7 10 12 13 13 14 15 15 15 14 15 15 15 14 12 12 12 12 13 11 10 14 13 10 13 14 14 12 13 13 12 12 13 12 13 14 14 12 11 11 10 9 10 9 8 8 9 9 8 9 9 8 8 9 9 9 10 9 9 10
0 2 7 8 8 10 13 11 13 13 13 13 7 4 6 6 9 3 3 4 7 3 1 1 2 5 7 9 12 12 13 15 16 16 15 15 15 15 16 15 16 15 13 15 15 14 14 12 12 14 12 11 14 14 15 13 12 14 14 14 14 13 12 11 11 12 11 11 10 9 9 9 9 9 9 9 9 9 9 9 8 8 9 9 9 9 8
0 2 4 9 9 5 3 8 13 13 12 9 5 1 2 10 7 5 3 12 3 2 3 3 4 6 6 6 11 11 13 15 16 16 16 15 15 15 17 17 18 18 16 14 13 11 13 16 13 12 12 11 11 13 14 14 11 11 11 13 15 14 11 12 12 11 11 12 11 9 9 10 9 9 10 9 9 9 9 8 8 9 8 9 8 8 9
1 2 8 10 8 6 7 1 1 12 14 12 11 8 9 8 7 6 5 2 2 2 5 6 7 8 8 9 10 11 13 14 15 13 13 14 15 15 14 15 16 16 16 14 13 11 10 12 14 13 14 12 10 11 12 13 12 8 10 11 8 10 11 12 12 11 10 10 11 10 9 9 9 9 10 9 9 8 8 8 8 8 8 9 8 8 8
1 2 9 8 6 5 3 2 2 2 5 6 14 12 11 9 7 6 6 4 4 5 5 5 4 5 2 5 8 11 12 11 11 12 13 14 15 16 16 16 14 13 14 15 15 14 12 11 9 11 12 11 10 10 9 9 11 14 16 16 11 10 14 12 12 11 10 10 10 9 9 9 9 9 9 9 9 8 8 9 9 9 9 9 8 8 8
2 1 5 4 3 3 2 3 5 3 3 2 1 2 4 6 10 9 4 3 4 3 4 4 3 3 3 2 5 8 10 11 11 12 12 13 14 15 15 16 15 14 13 14 13 13 11 10 11 10 9 8 10 12 13 15 13 14 16 15 13 10 9 12 13 12 10 9 9 9 10 10 10 9 9 10 11 9 8 7 6 7 6 7 9 8 8
2 1 2 2 1 3 4 4 4 3 3 8 8 5 7 7 6 8 3 2 3 4 4 5 3 4 4 3 4 6 8 11 10 9 9 11 12 12 12 14 15 13 13 13 14 12 11 12 12 11 12 11 11 12 13 11 15 15 14 16 15 14 12 11 12 13 11 10 10 10 11 11 11 11 11 10 8 7 8 7 7 7 7 7 7 8 8
0 3 5 3 3 3 2 0 2 2 1 1 2 3 6 2 4 5 5 5 7 6 5 7 8 6 4 2 3 6 8 9 9 6 4 6 9 11 11 11 11 12 13 12 12 14 15 15 14 10 11 12 10 13 13 13 14 15 17 16 15 13 10 11 15 14 14 13 11 11 11 12 12 9 8 7 9 8 9 9 8 7 7 7 6 7 8
1 1 4 3 2 1 1 2 1 1 1 2 4 2 7 1 3 6 6 6 8 9 9 10 8 4 2 3 2 5 9 8 10 9 8 8 9 11 12 12 11 12 13 14 14 14 14 14 11 12 11 11 10 12 13 14 14 14 13 12 14 15 11 10 11 14 14 13 12 11 9 8 9 11 10 9 8 7 6 7 7 7 6 7 6 5 6
1 0 1 2 0 2 2 2 1 3 1 4 4 9 5 3 2 5 6 7 9 9 9 7 6 4 5 3 2 1 9 10 9 10 9 9 9 9 9 9 10 9 10 12 12 13 14 12 11 14 14 14 13 12 11 13 14 14 11 8 9 10 11 12 10 10 11 13 12 11 13 13 9 9 8 7 8 7 6 5 6 6 6 6 7 6 5
2 2 1 0 1 2 1 3 5 1 3 3 6 6 2 1 2 4 6 6 8 9 8 7 4 1 2 2 2 2 8 10 7 6 6 7 9 9 8 7 8 10 11 12 13 14 13 9 10 10 10 12 16 14 14 13 12 9 11 11 10 10 11 12 12 13 11 11 14 13 12 10 8 7 7 9 9 8 9 6 6 6 6 6 6 6 6
2 0 2 1 0 1 2 3 5 3 4 5 4 3 1 3 3 3 6 6 7 7 6 4 2 2 4 4 2 5 9 8 10 9 10 9 7 6 7 9 9 10 9 9 9 9 9 10 9 8 9 10 12 12 9 8 10 11 11 12 13 13 11 10 9 9 9 10 11 11 10 10 9 8 7 8 9 9 8 9 8 7 6 6 6 5 5
1 0 3 3 5 1 3 7 1 1 0 1 2 5 3 4 4 3 4 6 5 8 6 2 1 2 3 4 5 8 8 9 10 10 11 11 11 10 10 9 7 9 9 9 9 8 9 10 8 9 9 9 8 7 9 8 6 7 8 8 8 8 9 10 10 10 10 12 10 10 11 11 11 10 9 9 7 7 10 9 8 7 7 6 6 6 5
1 1 2 0 2 2 2 3 1 1 2 2 3 2 4 1 2 2 2 4 6 7 6 4 1 1 2 5 7 9 9 9 9 9 9 9 9 8 7 8 8 7 7 8 8 8 8 7 8 9 10 10 9 5 10 9 9 9 9 9 10 10 9 10 10 11 12 12 10 9 12 12 11 11 11 9 9 7 6 9 10 9 5 5 5 6 7
0 0 1 2 2 2 2 1 1 2 4 2 3 4 4 5 2 1 3 1 5 7 6 3 0 2 4 5 5 8 8 9 9 9 9 9 9 9 9 8 7 5 7 8 7 7 5 6 5 6 8 10 9 8 9 10 10 10 11 12 12 10 8 9 10 9 8 7 9 9 10 11 10 10 10 10 9 7 8 7 9 9 9 7 7 6 6
3 3 2 2 1 3 4 0 2 3 4 3 2 2 3 2 4 4 3 1 6 4 3 3 2 3 5 7 8 9 9 9 9 9 10 9 9 9 8 8 6 5 5 6 8 8 8 7 6 5 6 8 10 10 10 11 10 10 11 11 10 12 10 9 9 10 8 7 9 11 10 8 8 8 10 9 8 9 9 8 9 9 10 8 6 6 6
1 3 3 4 4 4 4 4 2 1 2 4 4 3 3 4 4 2 1 2 4 5 4 2 3 4 5 8 9 10 9 9 9 9 10 9 9 9 9 9 8 7 7 6 7 8 8 6 6 6 7 6 8 10 9 10 9 10 11 11 10 11 12 11 11 9 9 10 10 10 8 7 7 8 8 8 8 8 7 8 7 7 8 8 7 6 7
1 3 2 2 0 2 2 3 5 6 8 7 6 3 3 2 3 2 3 4 5 2 4 4 4 4 4 8 9 9 9 10 9 10 10 10 9 8 9 8 6 6 6 7 8 8 8 6 5 6 6 9 11 10 10 10 10 10 10 11 13 13 13 12 10 10 9 12 12 9 9 9 8 7 6 8 8 9 9 9 9 9 9 8 7 7 7
3 3 2 1 2 4 6 5 5 4 5 5 5 4 4 4 6 9 10 9 6 5 6 4 5 6 5 8 8 8 9 9 9 9 9 9 9 9 9 7 6 6 6 6 7 8 6 4 3 5 8 10 12 13 12 11 11 11 11 10 10 13 13 11 10 8 9 10 10 11 11 6 4 8 10 10 10 10 8 9 11 13 12 9 8 9 9
3 2 5 4 3 3 3 7 8 7 7 4 2 4 10 10 10 9 11 11 10 8 6 6 5 7 8 8 7 7 8 9 9 9 9 9 10 9 8 6 6 6 4 6 7 7 6 4 4 6 8 9 9 8 10 10 11 12 12 12 13 13 12 12 10 9 9 9 10 9 9 9 8 4 7 5 1 6 7 6 1 4 4 8 10 9 9
2 1 0 1 3 5 2 3 6 5 6 5 10 11 10 9 9 8 9 10 10 10 9 7 6 9 11 9 8 7 7 7 7 8 10 10 8 8 8 8 7 6 6 6 7 7 6 6 5 6 7 7 7 8 8 8 9 12 13 10 9 10 10 9 10 9 9 9 7 7 7 8 7 7 6 4 8 6 4 4 3 2 4 4 3 7 8
3 1 3 0 1 5 3 3 4 6 6 6 11 10 9 9 9 8 10 10 9 8 9 9 7 7 8 9 10 7 6 7 8 8 7 7 8 9 8 7 7 7 7 6 5 6 6 7 6 6 6 9 8 7 7 8 8 11 14 13 11 9 9 8 9 9 8 8 9 8 9 9 8 8 7 7 4 5 3 7 6 5 5 5 6 9 10
3 2 2 3 7 7 5 4 5 6 7 8 10 9 9 10 9 10 11 10 9 8 9 8 7 5 7 8 8 7 5 5 7 8 9 8 7 7 6 6 7 7 7 6 4 5 5 6 6 5 5 6 8 10 9 9 10 11 12 12 12 11 9 9 9 9 9 8 9 9 11 10 8 8 9 8 8 6 2 3 5 8 7 7 8 9 10
6 6 6 5 6 5 1 3 9 9 8 6 9 9 9 9 9 12 12 10 9 9 9 8 8 6 5 6 6 9 7 6 6 7 7 7 8 7 6 5 5 5 5 5 5 5 5 5 5 5 5 5 7 8 8 8 9 10 10 10 11 12 12 13 12 10 9 8 8 8 7 8 9 10 9 8 8 6 6 5 3 1 3 7 9 10 10
5 5 4 4 7 7 7 5 4 4 4 5 7 8 8 9 12 12 10 10 10 10 9 8 7 7 7 8 9 8 8 6 6 6 7 7 7 6 5 4 5 6 6 5 5 5 5 5 5 4 4 5 5 6 7 8 8 7 8 8 8 7 12 12 11 11 10 9 9 8 8 8 8 8 8 6 7 9 9 8 6 6 6 5 6 10 8
6 6 4 1 2 4 4 4 3 3 5 5 5 7 5 6 9 13 13 12 12 11 10 10 9 8 8 6 7 8 9 9 7 5 6 6 5 4 5 7 7 7 6 5 4 5 5 5 5 5 5 5 6 7 7 8 8 8 8 8 8 8 9 10 8 8 9 9 9 9 9 9 8 7 7 7 7 7 8 8 7 7 5 5 6 6 7
9 10 10 10 8 5 4 4 5 8 8 6 6 5 6 12 11 13 12 11 8 10 10 10 9 9 8 7 7 8 7 6 6 6 5 3 3 4 5 6 6 6 6 5 5 4 4 4 4 5 5 6 7 7 7 8 8 7 7 7 6 7 8 7 6 6 7 7 8 8 7 6 6 6 7 7 6 4 5 6 6 5 5 6 6 6 4
6 9 11 7 7 5 4 9 7 6 7 7 9 9 7 10 11 10 9 10 10 11 9 8 10 10 8 8 7 7 8 8 7 6 5 5 4 4 5 6 7 6 5 5 4 4 4 4 4 5 4 5 7 7 8 8 7 8 8 8 7 8 8 8 7 7 7 7 7 9 8 7 8 7 6 6 7 7 6 5 6 5 6 6 7 7 8
7 10 9 4 3 5 8 6 6 6 6 6 7 8 8 9 10 10 8 8 9 9 9 9 9 9 9 8 7 7 8 8 8 8 7 7 6 4 3 2 3 4 4 4 4 4 4 4 4 3 3 5 6 6 6 7 6 6 6 6 5 6 8 10 9 8 7 7 7 7 6 6 6 7 7 7 6 5 5 4 5 5 5 5 6 6 7
10 9 7 2 2 5 6 4 6 6 5 3 7 10 7 8 9 9 7 7 7 7 8 9 9 8 7 6 7 7 8 9 9 8 8 8 7 5 4 4 4 4 3 4 4 4 4 4 5 3 3 5 5 6 6 6 5 6 6 5 6 5 6 10 7 7 7 7 7 7 7 7 6 6 6 7 7 8 7 6 5 5 5 6 6 6 7
10 9 5 4 4 5 5 3 4 5 6 7 7 5 5 5 6 6 6 6 6 6 8 7 6 6 5 5 5 6 8 10 9 9 8 8 7 5 4 2 2 3 3 2 3 4 4 4 3 3 5 5 6 6 6 6 6 4 5 5 5 5 6 7 6 6 6 6 7 7 7 6 6 7 7 8 7 7 7 7 6 6 5 5 5 6 7
7 6 8 6 3 5 7 4 2 5 5 5 3 4 5 5 6 5 5 5 6 7 6 5 5 5 6 6 6 5 3 5 7 7 7 7 7 6 5 4 4 4 4 4 3 1 1 2 2 3 5 6 6 6 6 6 5 4 5 5 5 5 6 5 7 6 6 6 6 6 6 7 7 7 7 7 7 6 6 6 5 6 6 5 5 4 6
4 6 5 4 4 6 6 6 5 4 4 4 4 4 4 4 5 5 5 6 6 4 3 4 4 5 6 7 8 8 8 8 6 6 6 6 6 5 6 6 6 7 8 8 6 4 3 2 3 4 4 5 6 6 6 7 7 6 7 6 6 6 6 6 6 6 6 6 6 6 6 6 6 6 6 6 6 7 7 7 6 5 5 3 1 2 3
7 7 6 6 5 6 6 5 3 4 4 4 4 5 5 5 5 5 6 4 2 3 3 3 4 5 6 7 7 6 5 5 5 5 6 5 4 4 4 5 6 7 8 7 6 6 6 4 6 4 3 4 5 6 6 6 6 5 6 6 6 5 5 5 5 4 4 5 6 6 5 5 5 6 5 5 6 6 6 5 5 4 3 4 4 4 4
5 7 6 5 4 5 5 4 3 4 4 4 3 5 6 6 6 4 4 4 4 3 3 3 5 7 6 5 4 4 4 4 4 4 4 3 3 4 6 6 6 5 4 5 5 6 5 5 8 5 4 3 4 5 5 7 5 5 6 5 5 5 6 6 5 5 5 4 5 5 6 5 5 4 5 5 6 5 4 4 5 4 3 3 3 4 4
4 6 7 6 5 6 5 3 2 4 4 5 5 5 5 5 4 5 5 5 5 5 5 6 6 5 4 4 5 6 5 5 5 5 4 4 4 5 6 6 5 5 4 4 5 5 4 6 8 3 3 3 3 3 5 7 7 6 5 6 6 6 6 5 6 5 5 5 6 5 6 6 6 5 4 4 4 4 4 3 4 4 4 4 3 4 4
6 4 5 5 5 5 5 3 3 2 4 6 4 4 3 4 3 4 4 5 4 3 5 6 5 6 5 6 6 6 6 6 5 4 4 5 4 6 6 6 5 4 3 5 5 4 5 6 4 2 1 1 2 3 5 7 8 5 5 5 6 5 6 5 6 6 6 6 5 6 5 6 5 6 4 3 3 4 4 4 4 4 4 3 3 3 3
5 4 5 5 5 4 4 4 3 3 2 2 4 5 2 3 4 4 4 4 5 4 4 4 6 6 6 7 7 6 5 5 4 4 4 3 4 3 3 4 6 5 6 6 4 4 5 6 2 3 2 2 2 3 4 7 6 5 6 5 5 6 6 6 5 6 5 6 6 7 5 5 5 5 5 5 5 4 4 4 4 3 3 2 2 2 2
5 5 4 4 4 3 4 4 4 3 3 3 4 3 1 3 3 5 5 5 5 5 5 6 7 6 7 6 6 4 4 5 5 5 4 2 4 4 4 5 6 6 6 6 5 4 4 4 4 3 3 2 2 4 5 6 6 5 6 6 7 7 6 7 6 5 5 5 6 5 6 6 6 5 5 5 5 4 4 4 4 3 3 3 3 3 2
4 5 5 4 4 3 3 4 4 5 4 3 3 3 3 2 4 6 4 5 5 6 6 6 7 6 5 5 6 6 5 5 5 5 6 6 5 4 4 5 6 6 8 6 4 3 4 4 4 3 2 3 3 5 7 5 5 5 5 5 6 6 7 6 6 6 6 6 6 7 6 5 5 6 5 4 4 4 4 3 3 2 2 2 2 2 2
5 5 5 4 4 3 3 3 4 5 4 3 2 2 2 3 4 4 4 4 5 6 6 6 5 5 5 5 5 5 5 4 4 4 5 5 4 4 4 4 6 6 8 5 4 4 4 4 4 4 5 5 6 7 7 5 5 5 5 5 5 6 6 6 6 6 6 6 6 6 7 6 5 5 6 4 3 3 3 3 3 3 2 2 2 3 3
4 3 3 4 4 3 1 3 4 5 5 4 2 3 3 3 2 4 5 5 4 5 5 5 5 5 4 4 4 4 4 4 3 2 3 4 5 4 3 4 5 5 6 4 4 5 5 5 5 6 8 9 9 8 7 6 6 6 5 5 6 6 5 6 6 7 6 6 7 6 6 5 5 5 5 5 4 3 2 2 1 2 2 2 2 2 2
4 3 3 3 4 4 3 3 5 6 5 4 4 3 3 3 2 2 4 6 5 4 4 5 5 5 5 5 5 4 3 3 3 2 4 5 6 5 5 5 5 5 6 5 6 6 6 5 7 8 8 9 9 9 7 7 6 6 6 5 5 6 6 5 5 5 5 6 6 6 6 5 5 6 5 4 4 3 2 2 2 2 2 2 2 2 3
5 4 4 5 5 5 3 3 3 4 5 5 4 3 2 3 3 3 3 5 5 4 4 4 4 5 6 6 5 4 3 3 4 4 4 4 4 2 3 4 5 5 7 8 7 6 6 7 10 10 10 10 10 9 8 7 7 7 7 6 6 6 6 5 5 5 5 5 5 5 5 5 5 4 4 4 4 4 3 2 1 1 1 1 1 1 2
5 4 4 3 2 2 4 3 3 4 4 4 5 4 2 2 2 3 3 3 4 4 3 3 3 3 3 3 4 4 5 5 5 4 4 3 3 2 3 4 6 6 6 7 7 6 6 7 8 10 11 10 9 7 7 7 7 6 6 7 7 6 6 5 5 5 6 6 6 5 4 5 5 5 5 5 5 4 4 3 3 2 1 1 2 2 1
6 5 4 4 4 4 4 4 4 3 3 3 3 3 3 3 3 2 3 4 4 4 4 3 3 2 2 2 2 2 3 4 6 4 3 3 3 3 4 6 6 7 9 9 10 8 10 11 11 11 11 11 9 8 7 7 8 8 7 6 6 6 5 6 6 6 6 6 6 6 6 7 6 5 4 4 4 4 4 4 4 4 4 4 4 4 4
2 3 4 4 4 4 5 4 3 3 2 2 2 2 3 3 2 2 2 3 5 5 4 3 3 2 2 2 2 3 3 4 3 4 3 3 3 4 5 5 6 6 7 7 7 6 7 11 11 12 11 9 7 6 6 6 6 7 7 6 6 6 6 6 6 6 7 7 7 7 6 6 5 5 5 5 4 4 5 4 5 4 3 4 5 5 6
4 4 4 4 4 4 3 3 3 3 2 2 2 2 3 4 4 2 2 2 3 4 4 3 2 2 2 2 3 3 3 4 6 6 6 5 4 4 4 5 5 6 7 7 7 6 6 9 10 9 8 6 6 6 7 8 8 7 6 6 6 5 5 3 5 7 7 7 7 6 5 5 5 6 5 5 4 5 5 6 6 6 9 7 7 7 7
4 5 4 5 4 3 5 3 1 2 2 2 2 3 3 2 2 3 2 3 3 4 4 4 3 2 2 3 3 3 3 4 4 5 4 4 5 5 5 5 5 4 5 5 5 5 4 5 6 7 8 8 8 8 8 7 7 6 7 6 6 4 4 4 4 4 5 6 6 5 5 5 5 5 6 6 7 7 7 6 6 6 7 7 7 7 7
1 2 2 2 2 2 2 1 1 1 1 2 3 3 2 2 3 3 2 2 2 4 4 5 4 2 2 3 4 4 3 4 4 4 5 5 5 5 5 5 5 5 5 5 5 5 5 6 6 7 7 7 6 7 7 7 7 7 7 7 7 7 6 5 5 5 5 6 6 6 5 5 7 7 8 8 8 7 7 7 7 7 8 7 7 7 7
Wind_Direction
241 258 245 215 159 174 167 180 174 179 180 178 197 214 131 169 198 201 192 159 207 249 260 100 252 196 193 180 176 172 166 166 169 175 179 183 183 185 188 191 178 179 182 189 187 184 185 179 180 180 179 161 150 147 148 153 144 149 152 165 164 156 143 162 168 163 148 128 133 134 133 127 121 125 129 128 133 139 143 142 144 149 151 150 149 147 146
253 235 209 225 177 158 168 184 182 188 172 187 194 203 165 195 234 13 206 204 238 262 316 136 346 214 181 155 149 151 163 171 174 179 185 187 188 188 188 191 190 183 181 182 184 183 171 176 170 170 171 168 164 160 152 155 158 165 156 166 165 161 163 165 163 153 132 130 132 131 131 133 132 131 134 139 142 144 144 145 142 143 146 150 152 151 149
312 124 163 156 187 161 175 176 186 188 183 190 194 191 109 342 305 135 63 220 275 275 292 287 348 222 145 144 161 165 167 172 178 184 189 189 188 190 190 190 190 183 179 175 175 180 173 166 165 160 167 166 162 162 156 161 168 163 161 168 167 164 164 163 155 140 138 139 137 136 133 128 133 138 141 143 146 146 143 142 143 143 146 148 152 154 154
42 78 160 165 166 186 173 182 190 182 180 192 183 201 183 174 222 137 162 269 263 235 306 309 245 174 175 171 170 169 172 177 181 189 189 187 188 188 190 189 191 189 176 176 175 177 181 177 165 164 163 168 164 166 165 165 165 172 172 169 169 170 158 146 143 145 141 142 141 136 135 138 142 143 143 146 147 147 143 141 141 143 148 152 150 150 150
173 5 160 136 120 118 186 203 195 182 182 181 160 202 149 216 195 166 183 239 256 53 155 177 176 192 196 178 180 175 178 186 190 190 187 188 188 188 189 190 191 192 187 178 177 174 185 197 186 170 163 163 168 164 164 162 156 163 163 163 172 170 154 148 148 148 144 144 144 143 143 142 138 140 144 143 143 143 145 144 143 148 148 145 149 152 154
34 27 124 124 133 180 208 95 201 176 176 174 172 194 199 213 177 213 239 274 34 201 182 207 191 196 202 191 189 189 183 188 194 189 188 190 191 191 191 192 193 194 195 189 179 171 173 186 199 188 175 168 163 158 158 154 154 149 152 171 160 154 152 152 148 148 145 137 141 143 139 135 136 136 140 143 140 140 137 140 144 139 143 146 147 156 159
59 121 129 134 168 197 40 318 216 47 7 190 184 199 205 198 210 286 274 236 247 223 220 236 228 193 184 183 176 192 200 193 189 190 188 188 190 191 191 193 189 189 190 192 187 174 174 175 161 165 171 157 144 140 133 145 166 170 174 169 164 165 164 151 148 146 142 137 134 135 135 133 132 133 135 135 138 141 147 151 151 151 153 153 155 158 158
73 160 139 148 190 38 344 50 85 73 97 336 142 203 222 213 211 213 245 209 208 195 237 258 208 194 194 180 200 198 195 196 189 185 191 190 189 191 194 194 192 185 183 185 181 180 171 163 166 157 153 143 151 162 166 166 184 180 171 165 159 165 170 152 146 144 138 131 127 130 133 136 136 137 141 149 150 151 147 145 143 143 146 152 154 157 155
182 152 126 94 35 112 92 109 134 170 176 167 180 190 228 192 195 189 197 142 195 201 232 203 182 151 141 151 217 212 201 196 199 193 186 185 189 191 191 193 193 189 186 182 181 168 159 166 166 153 144 147 161 169 179 179 173 177 174 169 169 169 168 154 144 146 144 136 137 139 145 146 148 153 157 156 146 143 137 142 147 153 153 154 155 154 154
234 150 124 129 153 158 167 196 111 170 227 247 235 202 201 152 173 181 188 177 177 196 197 194 175 163 135 83 268 195 193 192 186 184 158 168 182 188 187 185 182 186 187 183 169 172 172 173 170 155 152 155 154 173 182 178 179 182 182 178 173 165 168 154 150 147 149 150 146 152 152 157 157 148 137 139 149 154 148 149 155 156 153 149 151 156 159
172 219 138 138 128 67 31 185 95 90 183 209 190 200 208 124 153 175 194 181 182 182 190 185 164 180 115 114 199 163 165 177 179 169 169 162 172 179 177 172 165 172 178 176 174 175 174 170 157 149 164 156 155 172 180 184 186 186 187 176 172 171 158 156 150 147 149 153 154 151 144 135 143 149 154 155 154 151 139 139 140 143 149 146 146 149 155
255 184 115 111 195 108 181 225 304 335 257 171 182 200 199 119 182 167 189 187 176 188 203 194 195 200 145 138 78 100 162 161 172 163 154 153 155 158 161 170 170 156 156 164 168 177 177 174 166 168 167 176 176 180 187 183 185 187 181 159 167 150 143 150 158 151 151 145 143 144 151 168 162 151 136 122 140 139 131 128 131 141 144 145 148 148 144
115 124 82 71 98 280 289 312 315 19 201 215 174 196 122 132 203 182 194 193 193 186 189 202 221 288 338 352 11 1 129 131 138 130 124 136 146 144 147 139 134 160 170 174 177 180 178 154 166 172 178 181 185 186 190 190 184 157 142 137 141 148 158 160 160 159 158 149 148 151 159 152 142 118 134 142 140 141 136 128 131 136 142 141 140 138 151
143 238 80 73 307 73 330 312 308 285 156 159 193 59 310 268 272 163 206 202 195 202 200 169 294 305 332 319 351 125 134 135 146 137 133 121 105 92 107 130 144 158 163 172 172 173 157 141 152 166 177 191 194 182 168 155 167 160 150 149 156 157 153 154 146 147 148 145 142 143 142 138 131 130 130 141 148 141 143 144 141 140 138 142 142 139 143
128 60 95 127 137 137 50 315 25 17 304 42 353 304 269 205 259 244 210 213 196 185 194 240 274 311 351 39 81 112 112 127 138 135 131 132 138 140 137 146 142 148 159 163 164 158 162 154 143 160 171 193 212 179 139 139 122 117 122 130 125 130 136 139 145 143 143 140 149 149 144 149 142 137 142 141 138 146 143 136 129 131 144 146 144 144 146
90 108 121 72 40 21 21 330 104 44 9 320 298 277 303 319 245 269 247 197 190 177 190 204 125 53 44 64 87 102 103 113 120 121 118 120 126 132 130 138 145 143 146 164 160 157 156 148 146 156 164 173 204 149 90 96 102 112 124 129 133 137 139 144 146 151 153 157 151 140 148 151 145 141 145 143 141 147 144 144 145 145 145 147 149 152 157
37 50 85 61 341 318 341 232 360 296 315 296 274 253 273 302 333 323 287 176 159 177 176 99 196 69 59 82 87 105 111 115 123 122 117 117 120 127 135 144 138 137 144 158 151 140 116 125 128 150 159 169 176 126 127 140 149 142 135 135 137 138 146 150 151 146 144 139 145 142 148 151 148 146 136 139 140 143 144 145 153 154 156 166 167 165 163
195 64 79 277 33 1 355 295 247 323 342 356 297 287 292 305 316 291 295 134 148 165 140 151 54 69 117 113 103 102 105 107 105 107 106 106 111 118 122 129 133 106 100 133 145 118 107 106 110 126 146 160 155 142 145 145 148 145 141 136 139 147 147 148 144 145 136 121 139 151 144 149 147 151 151 155 149 152 156 157 163 162 162 171 169 169 170
326 82 347 33 10 335 354 353 37 122 25 3 340 333 329 334 335 311 260 168 136 141 137 84 106 117 130 111 104 105 106 105 109 108 109 108 114 119 120 126 127 128 130 139 132 123 116 124 130 143 145 135 123 134 146 148 149 144 143 137 137 144 150 150 155 152 145 148 154 151 146 140 148 151 155 151 147 148 154 153 159 168 173 167 171 177 175
56 117 99 62 52 240 318 12 18 12 359 9 22 359 335 347 51 44 68 112 88 75 87 94 112 108 110 103 105 107 106 110 110 110 111 111 104 105 116 125 115 117 131 147 149 136 137 155 149 136 117 124 134 139 141 144 144 143 145 152 150 155 155 157 156 152 147 144 145 150 156 152 150 149 154 158 155 160 166 167 166 174 172 178 177 179 181
91 96 96 230 208 75 43 40 40 21 358 349 10 11 24 22 56 66 61 50 51 59 70 70 93 99 85 89 101 107 113 112 114 112 110 109 113 119 120 123 130 139 150 154 148 142 149 154 130 105 117 137 147 146 150 150 148 146 149 147 147 154 156 156 152 145 147 153 156 154 156 151 139 166 169 173 173 180 187 176 176 172 176 188 186 185 177
137 160 174 194 125 105 16 18 8 354 357 326 341 31 40 31 36 48 66 61 59 56 58 64 76 92 80 75 88 101 108 113 113 114 111 111 110 109 115 113 112 109 113 125 134 136 144 144 107 117 131 143 148 144 147 147 147 147 149 152 154 160 161 163 155 144 146 154 161 153 154 157 151 114 35 50 143 169 170 170 196 301 206 190 189 181 186
131 163 344 277 78 78 18 340 344 359 348 11 48 42 39 38 37 38 63 70 62 51 42 54 87 105 100 88 74 70 85 91 99 111 115 115 116 119 126 123 128 129 130 129 125 136 149 148 128 125 133 140 144 148 145 146 143 147 151 148 152 155 160 161 155 148 148 156 153 158 157 155 140 137 138 83 56 73 119 130 170 168 204 261 252 214 199
46 47 131 230 55 110 108 33 16 23 4 43 65 52 48 45 42 46 56 52 65 65 56 57 66 88 111 125 120 119 109 109 105 99 94 99 118 125 134 137 134 132 138 144 147 149 153 157 146 146 144 154 150 149 145 143 142 150 158 158 160 159 157 146 147 153 152 149 153 155 166 169 159 157 154 150 138 50 100 167 161 182 191 191 192 194 214
107 116 103 97 100 98 100 87 56 43 25 51 68 56 50 54 51 53 62 58 48 60 70 66 59 81 107 99 95 87 52 79 98 107 105 100 104 116 115 117 129 133 141 152 133 145 152 145 139 147 142 145 156 160 162 157 154 155 160 160 158 158 156 153 158 156 156 148 156 159 168 168 167 169 166 169 165 163 79 76 166 175 183 182 186 193 194
75 91 101 106 97 85 201 154 60 35 28 38 74 72 64 63 65 63 56 54 50 49 62 65 66 49 47 74 74 87 85 72 74 100 107 110 117 116 113 118 116 116 124 130 134 142 144 136 140 148 150 145 163 163 157 157 160 157 159 159 158 164 164 166 164 166 163 162 164 169 162 167 175 178 179 172 168 144 142 145 108 100 190 188 186 184 193
38 20 306 142 80 63 27 56 85 1 16 40 74 79 79 80 73 72 67 59 54 48 48 47 58 62 57 61 77 84 106 103 85 73 90 95 97 102 111 117 124 122 123 127 142 151 148 143 138 140 134 146 155 157 163 165 162 157 153 154 156 142 150 161 170 173 167 169 170 166 167 175 178 178 174 165 156 163 168 163 171 181 186 184 186 187 183
54 41 26 328 128 111 104 72 77 64 50 45 59 79 90 84 69 63 59 55 53 52 50 42 46 58 63 50 79 89 89 82 80 79 76 82 86 106 118 124 130 133 135 133 136 152 161 160 145 145 145 156 165 171 170 166 162 160 161 161 157 157 166 171 163 163 168 167 167 170 174 182 178 167 154 155 163 173 175 176 177 172 165 175 166 168 180
71 58 47 36 42 75 112 122 78 60 57 55 65 54 63 64 56 59 53 50 50 57 52 47 51 53 62 64 76 90 93 90 86 81 84 76 73 92 107 116 118 119 123 129 139 157 164 167 170 176 162 163 170 172 171 166 166 164 162 165 159 160 168 177 174 161 157 159 169 169 167 148 146 157 162 157 160 164 176 174 169 162 163 147 144 135 157
59 75 69 22 5 323 64 59 53 49 48 40 59 52 50 77 70 59 54 46 46 55 46 51 57 57 57 66 56 67 80 86 88 87 80 82 87 91 104 112 109 102 110 126 146 162 174 183 188 204 178 165 174 172 169 169 172 175 174 175 173 172 175 173 166 163 166 173 159 148 156 158 168 162 155 161 170 171 177 177 166 156 160 165 172 173 173
75 70 62 20 26 1 68 70 62 51 48 40 56 66 56 71 80 72 59 54 52 53 45 51 54 55 54 59 69 77 84 83 81 75 72 71 76 75 77 112 111 115 125 139 157 173 182 190 206 218 172 174 175 172 166 167 163 163 169 170 171 159 154 153 166 171 171 159 149 156 150 154 160 157 160 158 157 156 172 166 170 181 173 161 178 181 173
84 70 86 73 32 70 71 59 67 56 48 33 56 57 45 63 79 81 73 61 54 51 55 52 49 45 43 57 73 82 83 83 79 73 70 69 67 60 49 61 84 105 119 143 161 171 180 189 209 208 176 183 179 180 176 166 151 156 166 149 141 139 150 156 165 172 169 160 154 158 154 156 153 157 147 164 170 171 166 164 183 178 171 179 189 183 165
109 114 110 121 97 75 75 44 71 65 57 63 67 76 75 74 81 83 79 77 72 61 59 56 50 44 45 56 53 63 82 85 81 76 74 69 66 57 49 45 80 103 108 129 157 171 177 198 203 179 184 179 183 183 184 171 166 157 149 145 140 134 147 172 167 158 156 153 168 170 161 163 151 161 172 173 170 164 167 173 175 177 189 196 194 183 173
148 159 159 169 155 144 134 115 83 97 82 72 73 77 78 74 80 89 92 84 79 73 67 60 44 37 41 54 62 61 68 79 67 63 65 70 69 67 65 65 76 68 55 48 52 65 196 191 187 195 191 182 178 178 182 177 169 161 152 149 137 132 150 151 151 165 161 170 163 153 153 153 161 167 161 168 164 168 169 170 171 183 192 202 193 191 164
79 68 65 86 76 88 105 125 135 120 112 96 75 65 64 68 73 79 78 76 74 78 79 71 60 52 51 53 55 55 60 67 64 60 60 63 64 68 80 93 102 99 82 65 52 34 358 281 213 200 198 192 182 175 174 181 178 173 169 160 153 149 154 147 163 173 171 162 153 158 157 165 168 163 155 151 154 159 165 175 177 182 199 206 66 62 131
101 93 89 80 77 91 99 103 101 106 101 90 88 82 74 71 74 75 67 63 69 95 106 97 83 75 66 65 67 62 65 65 59 55 51 40 49 74 90 79 90 95 95 78 45 18 356 354 345 300 221 192 191 179 179 172 168 159 150 149 151 148 148 151 154 131 130 144 159 162 165 143 127 142 143 145 152 162 174 177 169 155 164 182 179 180 169
81 103 100 98 95 102 105 106 115 110 99 94 90 86 77 68 69 78 79 71 70 70 65 77 78 72 75 71 69 61 56 54 50 52 53 39 34 46 51 56 50 48 61 69 23 359 352 353 345 312 272 190 188 190 162 149 156 142 144 151 145 153 151 158 155 145 133 134 133 136 129 130 136 132 154 157 166 168 149 154 137 144 161 167 166 174 171
104 115 124 125 126 112 100 91 96 106 110 90 74 68 75 83 84 79 74 69 65 67 71 74 82 91 89 77 66 60 54 47 49 56 58 51 41 62 52 45 34 20 29 26 342 341 339 330 321 314 231 211 190 186 146 157 143 145 150 154 157 155 156 150 145 142 139 139 137 132 143 153 149 147 153 163 159 150 149 147 156 156 159 162 170 177 185
105 92 90 96 104 105 112 111 101 74 90 103 97 86 77 88 96 92 65 57 43 46 70 73 85 84 79 76 72 63 52 45 37 32 53 54 50 65 66 56 48 33 4 332 326 328 331 327 329 344 332 175 169 156 133 151 151 152 146 145 147 152 151 150 148 148 146 139 137 149 143 143 144 150 148 144 124 120 128 145 148 152 156 167 177 186 192
126 118 122 126 117 123 120 109 95 89 76 74 98 98 111 86 72 72 69 60 41 40 67 86 76 71 71 72 70 61 39 30 26 26 35 35 55 78 101 77 41 20 2 335 338 344 330 301 334 50 49 81 128 122 133 148 149 141 145 149 147 147 149 142 140 143 137 136 137 141 135 141 133 132 136 136 141 148 146 152 161 153 143 143 170 174 180
116 119 116 111 118 128 131 128 110 92 84 86 85 99 104 91 82 72 66 63 54 58 70 79 88 84 78 78 71 62 49 41 34 30 13 13 48 34 47 46 17 1 359 346 337 334 348 17 43 62 68 73 104 125 128 136 143 136 140 151 155 154 149 149 143 134 143 138 140 140 143 135 131 130 135 144 152 146 145 149 146 142 149 166 181 188 191
129 125 118 118 125 130 110 94 104 105 93 87 91 88 78 35 64 80 80 80 77 74 75 67 62 86 94 91 92 84 69 47 44 44 44 46 43 27 44 36 1 350 344 329 332 7 31 44 50 59 78 103 101 102 113 127 128 126 128 130 138 141 143 134 134 136 133 139 140 143 137 130 129 132 141 143 142 142 144 137 140 147 162 164 167 163 148
151 146 141 137 126 130 145 140 121 117 119 112 117 104 90 82 96 98 96 92 90 91 92 99 96 85 95 97 87 77 60 33 42 51 58 51 41 31 21 341 335 347 341 341 5 35 36 36 41 47 45 73 100 99 94 100 109 112 114 116 112 114 123 129 130 134 133 132 129 129 130 127 129 140 142 133 132 134 137 147 156 165 163 160 152 154 176
149 138 146 140 134 142 140 114 116 134 131 130 133 132 128 124 124 120 115 109 103 102 108 111 109 109 109 108 99 79 63 53 56 57 74 78 80 62 24 335 336 349 358 15 43 47 45 49 62 80 83 90 91 91 99 107 99 96 98 105 108 107 113 120 126 135 136 133 129 132 135 137 131 129 134 132 134 139 136 122 132 107 120 137 150 142 145
164 158 146 133 133 136 164 161 137 128 122 125 134 146 150 141 129 121 118 115 112 120 119 112 113 113 115 108 103 97 78 47 34 36 102 93 78 44 8 350 8 33 31 32 64 62 69 70 76 77 82 81 82 84 92 91 91 87 90 92 95 103 103 108 118 117 115 116 117 121 123 127 130 135 134 128 127 118 115 104 81 117 148 146 142 144 172
151 155 144 141 157 174 160 110 98 117 127 127 124 136 158 149 140 133 121 114 117 114 111 116 121 123 125 123 123 122 115 74 54 41 45 45 67 43 350 7 53 54 51 53 68 65 73 83 93 92 90 88 86 84 84 82 87 88 84 81 81 81 91 102 106 116 116 114 115 111 115 118 116 109 108 108 104 95 92 104 118 110 102 110 144 138 129
150 150 159 156 138 121 120 128 140 140 140 160 154 146 163 160 156 145 133 112 113 123 125 120 121 135 150 143 135 124 109 100 78 58 53 66 76 72 57 43 57 47 62 75 73 76 80 74 75 79 81 80 83 91 90 87 83 81 79 85 85 86 84 88 92 98 106 110 96 88 86 94 100 96 90 95 96 102 120 130 132 141 134 110 80 79 101
163 164 158 156 151 140 133 145 160 152 184 173 117 137 156 148 161 153 133 132 127 126 121 119 120 130 141 139 112 64 65 97 103 79 59 68 79 86 86 87 84 90 88 80 73 66 71 78 75 75 75 74 72 73 70 74 79 81 83 81 81 83 85 88 86 90 92 97 101 106 101 92 86 90 88 86 84 75 58 37 16 16 25 32 31 39 48
162 126 127 139 141 144 145 174 205 184 195 113 158 138 128 143 134 144 155 141 132 120 108 99 97 98 95 64 60 72 54 2 52 115 125 110 101 99 95 93 83 81 83 83 83 78 67 79 79 75 72 70 75 73 73 70 72 79 76 77 75 73 79 87 92 101 101 94 88 84 87 88 90 91 87 76 63 57 51 47 37 29 40 67 71 61 57
147 142 147 157 154 166 161 167 212 195 181 176 157 127 159 158 154 161 171 154 114 112 110 101 91 89 82 96 85 75 52 75 81 98 113 112 105 102 99 86 78 66 73 90 86 82 70 74 75 77 82 86 81 84 87 85 79 68 62 63 67 69 52 53 90 95 100 99 96 91 80 84 84 87 86 83 85 76 72 70 68 61 57 57 58 58 59
158 168 174 175 184 174 176 181 173 172 189 191 139 154 163 171 120 159 177 153 143 126 108 103 87 80 85 79 80 74 81 85 89 103 113 109 103 92 88 98 90 84 88 88 83 82 78 78 80 80 79 84 90 87 87 83 78 70 69 65 65 64 69 66 64 52 61 82 87 86 101 104 98 86 72 67 67 66 63 66 65 59 62 67 68 72 72
124 121 120 140 156 158 179 155 164 208 122 151 158 173 162 145 137 151 148 168 176 131 134 124 112 89 89 101 107 110 106 103 117 111 108 115 119 116 105 101 96 79 73 75 81 83 86 87 79 71 78 84 85 86 80 71 72 71 66 64 64 69 75 84 90 88 79 76 83 84 69 67 71 74 71 72 74 75 72 73 74 77 80 80 80 76 77